N4ESA Weather Reports


Display with metric or nautical units.
time (UTC)temp
F
wind
direction
speed
MPH
gust
MPH
rain 1hr
in
rain 24hr
in
rain mn
in
humidity
%
barometer
mb
20260906111550 70 165 0.0 0.0 0.00 0.81 0.01 100
20260906110038 70 165 0.0 0.0 0.00 0.81 0.01 100
20260906104538 69 165 0.0 0.0 0.00 0.81 0.01 100
20260906103036 69 165 0.0 0.0 0.00 0.81 0.01 100
20260906101536 69 164 0.0 0.0 0.01 0.81 0.01 100
20260906100042 69 164 0.0 0.0 0.01 0.81 0.01 100
20260906094536 69 164 0.0 0.0 0.01 0.81 0.01 100
20260906093038 69 181 0.0 0.0 0.01 0.81 0.01 100
20260906091534 69 181 0.0 0.0 0.00 0.80 0.00 100
20260906090033 69 171 0.0 0.0 0.00 0.80 0.00 100 790.0
20260906084532 69 171 0.0 0.0 0.00 0.80 0.00 100 790.0
20260906083032 69 171 0.0 0.0 0.00 0.80 0.00 100 790.0
20260906081531 69 171 0.0 0.0 0.00 0.80 0.00 100 790.0
20260906080031 69 171 0.0 0.0 0.00 0.80 0.00 100 790.0
20260906074530 69 169 0.0 0.0 0.00 0.80 0.00 100 790.0
20260906073031 69 169 0.0 0.0 0.00 0.80 0.00 100 790.0
20260906071528 70 169 0.0 0.0 0.00 0.80 0.00 100 790.0
20260906070027 70 169 0.0 0.0 0.00 0.80 0.00 100 790.0
20260906064525 69 171 0.0 0.0 0.00 0.80 0.00 100 790.0
20260906063024 69 173 0.0 0.0 0.00 0.80 0.00 100 790.0
20260906061523 69 173 0.0 0.0 0.00 0.80 0.00 100 790.0
20260906060026 69 173 0.0 0.0 0.00 0.80 0.00 100 790.0
20260906054536 70 173 0.0 0.0 0.00 0.80 0.00 100 790.0
20260906053020 70 173 0.0 0.0 0.00 0.80 0.00 100 790.0
20260906051519 70 173 0.0 0.0 0.00 0.80 0.00 100 790.0
20260906050019 70 173 0.0 0.0 0.00 0.80 0.00 100 790.0
20260906044518 70 173 0.0 0.0 0.00 0.80 0.00 100 790.0
20260906043019 70 173 0.0 2.0 0.00 0.80 0.00 100 790.0
20260906041516 70 178 2.0 3.0 0.00 0.80 0.00 100 790.0
20260906040024 70 219 0.0 0.0 0.00 0.80 0.80 100 790.0
20260906034515 70 219 0.0 2.0 0.00 0.80 0.80 100 790.0
20260906033032 71 219 0.0 3.0 0.00 0.80 0.80 100 790.0
20260906031512 70 145 0.0 0.0 0.00 0.80 0.80 100 790.0
20260906030012 70 144 0.0 0.0 0.00 0.80 0.80 100 790.0
20260906024513 71 144 0.0 0.0 0.00 0.80 0.80 100 790.0
20260906023013 71 144 0.0 0.0 0.00 0.80 0.80 100 790.0
20260906021511 71 144 0.0 0.0 0.00 0.80 0.80 100 790.0
20260906020010 70 144 0.0 0.0 0.00 0.80 0.80 100 790.0
20260906014510 71 144 0.0 2.0 0.00 0.80 0.80 100 790.0
20260906013009 71 146 0.0 1.0 0.00 0.80 0.80 100 790.0
20260906011515 71 146 0.0 0.0 0.00 0.80 0.80 100 790.0
20260906010011 71 146 0.0 2.0 0.00 0.80 0.80 100 790.0
20260906004508 71 144 0.0 3.0 0.00 0.80 0.80 100 790.0
20260906003007 71 140 0.0 1.0 0.00 0.80 0.80 100 790.0
20260906001509 71 140 0.0 5.0 0.00 0.80 0.80 100 790.0
20260906000008 71 319 0.0 0.0 0.00 0.80 0.80 100 790.0
20260905234506 72 319 0.0 0.0 0.00 0.80 0.80 100 790.0
20260905233006 72 313 0.0 0.0 0.00 0.80 0.80 99 790.0
20260905231505 72 324 0.0 0.0 0.00 0.80 0.80 100 790.0
20260905230004 72 96 0.0 0.0 0.01 0.80 0.80 100 790.0
20260905224504 72 92 0.0 0.0 0.01 0.80 0.80 99 790.0
20260905223003 72 27 0.0 0.0 0.01 0.80 0.80 99 790.0
20260905221503 71 23 0.0 3.0 0.02 0.80 0.80 99 790.0
20260905220002 71 24 1.0 5.0 0.04 0.79 0.79 99 790.0
20260905214502 71 290 3.0 10.0 0.39 0.79 0.79 99 790.0
20260905213000 70 175 1.0 3.0 0.53 0.79 0.79 97 790.0
20260905211559 70 154 2.0 9.0 0.78 0.78 0.78 97 790.0
20260905210105 71 42 4.0 14.0 0.75 0.75 0.75 95 790.0
20260905204554 74 317 12.0 44.0 0.42 0.42 0.42 90 790.0
20260905203052 84 189 4.0 18.0 0.26 0.26 0.26 82 790.0
20260905201551 93 276 2.0 6.0 0.00 0.00 0.00 70 790.0
20260905200050 95 250 2.0 7.0 0.00 0.00 0.00 67 790.0
20260905194551 97 323 3.0 8.0 0.00 0.00 0.00 66 790.0
20260905193049 96 217 2.0 7.0 0.00 0.00 0.00 64 790.0
20260905191548 94 236 1.0 5.0 0.00 0.00 0.00 70 790.0
20260905190048 94 237 0.0 4.0 0.00 0.00 0.00 68 790.0
20260905184556 97 238 2.0 8.0 0.00 0.00 0.00 66 790.0
20260905183047 98 142 1.0 7.0 0.00 0.00 0.00 64 790.0
20260905181545 97 284 0.0 4.0 0.00 0.00 0.00 67 790.0
20260905180050 97 22 0.0 5.0 0.00 0.00 0.00 63 790.0
20260905174542 97 281 2.0 5.0 0.00 0.00 0.00 63 790.0
20260905173100 96 317 2.0 9.0 0.00 0.00 0.00 66 790.0
20260905171537 96 275 2.0 8.0 0.00 0.00 0.00 67 790.0
20260905170038 95 244 2.0 7.0 0.00 0.00 0.00 68 790.0
20260905164534 95 271 2.0 8.0 0.00 0.00 0.00 67 790.0
20260905163031 94 245 0.0 8.0 0.00 0.00 0.00 72
20260905161530 94 248 3.0 7.0 0.00 0.00 0.00 71
20260905160027 93 263 3.0 11.0 0.00 0.00 0.00 71
20260905154524 93 238 1.0 7.0 0.00 0.00 0.00 73
20260905153021 91 282 2.0 8.0 0.00 0.00 0.00 75
20260905151521 91 299 2.0 9.0 0.00 0.00 0.00 77
20260905150017 91 300 1.0 6.0 0.00 0.00 0.00 77
20260905144522 90 231 2.0 5.0 0.00 0.00 0.00 80
20260905143011 88 265 3.0 8.0 0.00 0.00 0.00 79
20260905141508 87 259 1.0 8.0 0.00 0.00 0.00 82
20260905140005 86 277 3.0 8.0 0.00 0.00 0.00 84
20260905134601 85 248 1.0 8.0 0.00 0.00 0.00 88
20260905133103 84 300 5.0 11.0 0.00 0.00 0.00 86 698.9
20260905131559 84 249 2.0 11.0 0.00 0.00 0.00 86 698.9
20260905130054 83 257 5.0 11.0 0.00 0.00 0.00 87 698.9
20260905124551 83 284 4.0 10.0 0.00 0.00 0.00 89 698.9
20260905123059 81 272 5.0 12.0 0.00 0.00 0.00 90 698.9
20260905121552 80 258 3.0 9.0 0.00 0.00 0.00 92 698.9
20260905120044 79 257 3.0 8.0 0.00 0.00 0.00 94 698.9
20260905114544 78 285 0.0 7.0 0.00 0.00 0.00 96 698.9
20260905113043 77 265 2.0 6.0 0.00 0.00 0.00 98 698.9